Location: Unspecified
(0.0000°N, 0.0000°E)
Time: 03:53:50
(UTC+02:00)

Haruka - Visible Passes

Search period start: 23 June 2017 00:00
Search period end: 03 July 2017 00:00
Orbit: 527 x 21230 km, 31.2° (Epoch: 21 June)

Date Brightness Start Highest point End Pass type
(mag) Time Alt. Az. Time Alt. Az. Time Alt. Az.
23 Jun 8.2 00:13:20 10° WSW 02:05:37 37° WNW 05:15:09 10° NE visible
23 Jun 7.7 18:25:39 10° SSW 18:59:23 49° SE 23:18:55 10° NE visible
24 Jun 8.0 01:50:39 10° W 03:25:19 19° WNW 06:24:11 10° NE visible
24 Jun 8.2 19:33:22 10° SW 20:30:59 68° ESE 00:38:47 10° NE visible
25 Jun 6.9 06:44:14 10° NW 07:24:49 32° N 07:32:42 10° ENE visible
25 Jun 8.6 20:42:09 10° SW 22:06:18 89° ESE 01:53:26 10° NE visible
26 Jun 8.6 21:52:45 10° WSW 23:33:22 69° WNW 03:05:31 10° NE visible
27 Jun 7.0 16:21:10 10° SSW 16:34:32 24° SE 19:55:27 10° ENE visible
27 Jun 8.3 23:06:56 10° WSW 00:56:02 49° WNW 04:16:06 10° NE visible
28 Jun 7.4 17:27:38 10° SSW 17:50:54 40° SE 22:04:50 10° ENE visible
29 Jun 8.0 00:29:56 10° WSW 02:18:05 30° WNW 05:25:43 10° NE visible
29 Jun 7.9 18:34:45 10° SW 19:11:57 58° SE 23:32:26 10° NE visible
30 Jun 7.3 02:41:05 10° W 06:23:44 34° N 06:34:34 10° ENE visible
30 Jun 8.3 19:42:42 10° SW 20:41:31 79° ESE 00:50:35 10° NE visible
01 Jul 6.3 07:05:00 10° NW 07:36:13 39° NNE 07:42:41 10° E visible
01 Jul 8.7 20:51:57 10° SW 22:14:33 81° WNW 02:04:38 10° NE visible
